Preview of NWS' New Version of Forecast
This preview is not operational and should not be used for support decisions.

Regional Weather Roundup (RWR)

Issued by National Weather Service (NWS)

                            
000
ASUS42 KTBW 241016
RWRFL 
FLORIDA REGIONAL WEATHER ROUNDUP
NATIONAL WEATHER SERVICE TAMPA BAY RUSKIN FL
600 AM EDT SUN MAR 24 2019

NOTE: "FAIR" INDICATES FEW OR NO CLOUDS BELOW 12,000 FEET WITH NO
SIGNIFICANT WEATHER AND/OR OBSTRUCTIONS TO VISIBILITY.

FLZ001>010-012>015-112-114-115-241100-
PANHANDLE FLORIDA
  
CITY           SKY/WX    TMP DP  RH WIND       PRES   REMARKS
PENSACOLA      FAIR      51  51 100 CALM      30.19R                  
PENSACOLA NAS  FAIR      44  43  96 CALM      30.19R FOG              
MILTON NAS     FAIR      40  40 100 N3        30.20R                  
CRESTVIEW      FAIR      38  36  92 CALM      30.22R                  
DUKE FIELD     FAIR      38  36  93 CALM      30.20R                  
VALPARAISO     FAIR      44  40  88 CALM      30.19R                  
PANAMA CITY    FAIR      43  40  89 NW3       30.20R                  
TYNDALL AFB    FAIR      47  44  91 NE3       30.21R                  
APALACHICOLA   FAIR      49  45  86 E5        30.20S                  

STATION/POSITION SKY/WX   TEMP    WIND        PRES    WAVE   SWELL
                          AIR SEA DIR/SP/G            HT/PER HT/PER
                          (F)     (DEG/KT/KT) (MB)    (FT/S) (FT/S)
30.1N   87.6W                                 1022.5R   1
29.2N   88.2W                     190/  6/  6 1022.3R   1/ 4
PANAMA CITY BEAC           57 65   60/  6/  6 1022.9R
TOWER C                    63      70/ 11/ 12 1022.8F

$$
FLZ011-016>038-118-127-128-134-139-239-241100-
NORTH FLORIDA
  
CITY           SKY/WX    TMP DP  RH WIND       PRES   REMARKS
MARIANNA       FAIR      44  42  93 NE5       30.21R WCI  42          
TALLAHASSEE    FAIR      44  40  85 CALM      30.21F                  
PERRY          FAIR      49  44  84 CALM      30.24F                  
LIVE OAK       CLEAR     45  45 100 CALM      30.25R                  
CROSS CITY     FAIR      45  42  91 CALM      30.24R                  
LAKE CITY      FAIR      45  45 100 CALM      30.25R                  
GAINESVILLE    FAIR      50  45  83 CALM      30.27R                  
WILLISTON        N/A    N/A N/A N/A MISG        N/A                   
PALATKA        FAIR     N/A N/A N/A CALM      30.25R                  
MAYPORT NAS    FAIR      58  56  93 NE5       30.25R                  
JACKSONVILLE   MOCLDY    43  42  97 W5        30.25R WCI  40          
JAX NAS        MOCLDY    57  50  77 CALM      30.26R                  
JAX CECIL      MOCLDY   N/A N/A N/A CALM      30.25R                  
FERNANDINA BEA FAIR      51  50  97 CALM      30.25S FOG              
ST AUGUSTINE   FAIR      49  46  90 CALM      30.26R                  
PALM COAST     CLEAR     52  48  87 CALM      30.24R                  

STATION/POSITION SKY/WX   TEMP    WIND        PRES    WAVE   SWELL
                          AIR SEA DIR/SP/G            HT/PER HT/PER
                          (F)     (DEG/KT/KT) (MB)    (FT/S) (FT/S)
SHELL POINT      NOT AVBL
KEATON BEACH               51      60/  4/  6 1023.7S
CEDAR KEY                  58      70/  8/  9 1023.4S
FERNANDINA                 60 63   90/  2/  2 1025.1R
30.7N   81.3W                 62                N/A     2/12   2/12
MAYPORT                    61 64   50/  3/  4 1024.3R
31.4N   80.9W              63 62  100/  8/  8 1025.0R   3/11   2/11
ST AUGUSTINE               64 63   70/  6/  7 1024.4R

$$
FLZ040-043>046-052-053-057-058-063-144-241100-
INTERIOR CENTRAL FLORIDA
  
CITY           SKY/WX    TMP DP  RH WIND       PRES   REMARKS
OCALA          FAIR      51  49  92 CALM      30.25R                  
LEESBURG       FAIR      57  51  80 NE6       30.23S                  
SANFORD        FAIR      58  52  80 NE5       30.22R                  
ORLANDO EXEC   FAIR      59  54  83 NE5       30.22R                  
ORLANDO INTL   CLOUDY    60  55  83 NE5       30.22R                  
KISSIMMEE      FAIR      60  56  86 NE3       30.23R                  
WINTER HAVEN   FAIR      61  56  83 NE5       30.22R                  
LAKELAND       FAIR      59  54  82 E3        30.22R                  
BARTOW         FAIR      59  55  88 NE5       30.20R                  
SEBRING        FAIR      56  54  95 NE6       30.21S                  
OKEECHOBEE     FAIR      55  54  94 CALM      30.19S                  

$$
FLZ041-047-054-059-064-141-147-241100-
EAST CENTRAL FLORIDA
  
CITY           SKY/WX    TMP DP  RH WIND       PRES   REMARKS
DAYTONA BEACH  MOCLDY    56  53  90 NE3       30.23S                  
DELAND         FAIR      54  48  82 CALM      30.23R                  
JFK SPACE CTR  FAIR      57  55  93 NE3       30.21S                  
CAPE CANAVERAL FAIR      58  55  88 E6        30.20F                  
PATRICK AFB    FAIR      67  63  87 E7        30.20F                  
MELBOURNE      FAIR      62  56  80 E6        30.20S                  
VERO BEACH     FAIR      56  53  90 CALM      30.19F                  
FT PIERCE      FAIR      55  52  89 CALM      30.19S                  
STUART         MOCLDY    68  55  64 E8        30.20S                  

STATION/POSITION SKY/WX   TEMP    WIND        PRES    WAVE   SWELL
                          AIR SEA DIR/SP/G            HT/PER HT/PER
                          (F)     (DEG/KT/KT) (MB)    (FT/S) (FT/S)
28.5N   80.2W              71      90/ 10/ 14 1023.8
28.9N   78.5W              70 74  100/  8/ 12 1024.3R   4/10   3/10
TRIDENT PIER               63 68   50/  4/  5 1024.0R
28.4N   80.5W                 67                N/A     1/12   2/12
27.5N   80.2W                 69                N/A     3/11   2/11

$$
FLZ050-056-061-142-242-148-248-149-249-151-251-155-255-
160-260-241100-
WEST CENTRAL FLORIDA
  
CITY           SKY/WX    TMP DP  RH WIND       PRES   REMARKS
CRYSTAL RIVER  FAIR      50  46  87 NE3       30.23R                  
INVERNESS      FAIR      50  50 100 CALM      30.23S                  
BROOKSVILLE    FAIR      50  48  93 CALM      30.22S                  
CLEARWATER AIR FAIR      59  52  77 E5        30.20R                  
ST PETE CLEARW FAIR      60  55  83 E3        30.20R                  
TAMPA INTL     FAIR      63  53  70 NE5       30.21R                  
TAMPA EXEC     FAIR      52  52 100 CALM      30.22R                  
PLANT CITY     FAIR      59  57  94 E5        30.22S                  
MACDILL AFB    FAIR      62  55  77 E6        30.20R                  
PETER O KNIGHT FAIR      61  57  88 E7        30.21R                  
ST PETERSBURG  FAIR      64  57  78 E10       30.19R                  
SARASOTA       FAIR      60  54  80 E7        30.17S                  
VENICE         FAIR      61  57  88 E6        30.19S                  

STATION/POSITION SKY/WX   TEMP    WIND        PRES    WAVE   SWELL
                          AIR SEA DIR/SP/G            HT/PER HT/PER
                          (F)     (DEG/KT/KT) (MB)    (FT/S) (FT/S)
27.3N   84.2W                 72                N/A     1/ 4
CLEARWATER BEACH           64 69   80/  5/  7 1022.6R
MIDDLE TAMPA BAY           62     130/  9/ 11 1022.4R
VENICE                     60 71   60/  5/  6 1022.2R

$$
FLZ066-069-070-075>078-162-262-165-265-241100-
SOUTHWEST FLORIDA AND KEYS
  
CITY           SKY/WX    TMP DP  RH WIND       PRES   REMARKS
PUNTA GORDA    FAIR      55  53  93 NE3       30.20S                  
FT MYERS       FAIR      59  56  89 E3        30.17F                  
SOUTHWEST INTL FAIR      60  56  86 N3        30.18S                  
NAPLES         FAIR      60  57  89 N5        30.17S                  
MARCO ISLAND   FAIR      59  56  89 NE6       30.18S                  
IMMOKALEE      CLOUDY    54  52  94 CALM      30.17R FOG              
MARATHON       MOCLDY    76  64  66 E9        30.12S                  
KEY WEST NAS   FAIR      72  65  78 NE8       30.13S                  
KEY WEST INTL  FAIR      71  64  78 NE7       30.13S                  

STATION/POSITION SKY/WX   TEMP    WIND        PRES    WAVE   SWELL
                          AIR SEA DIR/SP/G            HT/PER HT/PER
                          (F)     (DEG/KT/KT) (MB)    (FT/S) (FT/S)
NAPLES                     62 71   60/  3/  3 1021.7R
26.0N   85.6W              69 79   80/  8/ 12 1021.2
DRY TORTUGAS               73      90/ 13/ 14 1020.5R
SAND KEY                   72                 1020.1R
SOMBRERO KEY               75                 1019.2R
MOLASSES REEF              74 77   90/ 18/ 22 1020.7R

$$
FLZ067-068-071>074-168-172>174-241100-
SOUTHEAST FLORIDA 
  
CITY           SKY/WX    TMP DP  RH WIND       PRES   REMARKS
W PALM BEACH   FAIR      71  55  56 E13       30.18S                  
FT LAUDER-EXEC FAIR      70  55  59 E6        30.16F                  
FT LAUDERDALE  FAIR      72  55  55 E10       30.16S                  
POMPANO BEACH  MOCLDY    73  56  54 E10       30.16F                  
PEMBROKE PINES FAIR      67  55  65 E5        30.18S                  
OPA LOCKA      FAIR      63  55  75 NE5       30.17S                  
MIAMI          FAIR      67  57  70 E8        30.16S                  
WEST KENDALL   FAIR      62  58  86 E8        30.15F                  
HOMESTEAD      FAIR      70  61  71 E10       30.14F                  

STATION/POSITION SKY/WX   TEMP    WIND        PRES    WAVE   SWELL
                          AIR SEA DIR/SP/G            HT/PER HT/PER
                          (F)     (DEG/KT/KT) (MB)    (FT/S) (FT/S)
PORT EVERGLADES            73      80/ 10/ 13 1021.3F
VIRGINIA KEY               73 74   70/ 12/ 15 1020.7R
LAKE WORTH                 72 74   80/ 14/ 19 1022.8F
FOWEY ROCKS                72 77   80/ 14/ 15 1021.9R
SETTLEMENT POINT           71     100/  9/ 10 1023.0R

$$